[ hide orbit diagram ]
For accurate long-term ephemerides, please instead use our Horizons system.This orbit viewer was implemented using two-body methods, and hence should not be used for determining accurate long-term trajectories (over several years or decades) or planetary encounter circumstances.
Orbital Elements at Epoch 2459200.5 (2020-Dec-17.0) TDB
Reference: JPL 65 (heliocentric ecliptic J2000)
Element | Value | Uncertainty (1-sigma) | Units |
e | .1219929717181117 | 2.7981e-08 | |
a | 3.209033372901197 | 1.2618e-08 | au |
q | 2.817553855398385 | 9.3126e-08 | au |
i | 9.317404167793189 | 3.2489e-06 | deg |
node | 259.1329134360589 | 2.2931e-05 | deg |
peri | 145.5386038268509 | 2.8575e-05 | deg |
M | 323.0578895143203 | 1.6744e-05 | deg |
tp | 2459415.966114162552 (2021-Jul-20.46611416) | 9.7703e-05 | TDB |
period | 2099.712227556333 5.75 | 1.2384e-05 3.391e-08 | d yr |
n | .1714520662762305 | 1.0113e-09 | deg/d |
Q | 3.600512890404009 | 1.4158e-08 | au |
|
| | Orbit Determination Parameters
Additional Information
|
[ show covariance matrix ]
Physical Parameter Table
Parameter |
Symbol |
Value |
Units |
Sigma |
Reference |
Notes |
absolute magnitude |
H |
9.76 |
|
n/a |
E2021B10 |
|
diameter |
diameter |
72.711 |
km |
0.298 |
urn:nasa:pds:neowise_diameters_albedos::2.0[mainbelt] (http://adsabs.harvard.edu/abs/2014ApJ...791..121M) |
|
rotation period |
rot_per |
20.99 |
h |
n/a |
LCDB (Rev. 2020-October); Warner et al., 2009 |
Published Reference List: [Behrend, R. (2005) Observatoire de Geneve web site, http://obswww.unige.ch/~behrend/page_cou.html] [Aznar, A.; Garceran, A.C.; Mansego, E.A.; Rodriguez, P.B.; et al. (2016) Minor Planet Bull. 43, 174-181.] [Behrend, R. (2020) Observatoire de Geneve web site, http://obswww.unige.ch/~behrend/page_cou.html] |
geometric albedo |
albedo |
0.041 |
|
0.004 |
urn:nasa:pds:neowise_diameters_albedos::2.0[mainbelt] (http://adsabs.harvard.edu/abs/2014ApJ...791..121M) |
|
B-V |
BV |
0.689 |
|
0.031 |
EAR-A-5-DDR-UBV-MEAN-VALUES-V1.2 |
#obs=6; phase (min.=3.64, mean=12.51, max.=19.85) deg. |
U-B |
UB |
0.265 |
|
0.034 |
EAR-A-5-DDR-UBV-MEAN-VALUES-V1.2 |
#obs=6; phase (min.=3.64, mean=12.51, max.=19.85) deg. |
Tholen spectral type |
spec_T |
PC |
|
n/a |
EAR-A-5-DDR-TAXONOMY-V4.0 |
used 7 color indices; used ground-based radiometric albedo |
|
1001 Gaussia (A923 PD) Discovered 1923-Aug-08 by Belyavskij, S. at Simeis |
Reference: DISCOVERY.DB | Last Updated: 2003-08-29 |
|
[ show close-approach data ]
Alternate Designations
A923 PD = A907 XC = A911 MD |
|
|